EN

Hourly Weather Toribio

Today, 18 April, Sunday

Time Temperature Precipitation Wind Pressure Humidity
00:00 +15°C° 0.3 mm 1 mps 616 mmHg 93%
01:00 +15°C° 0 mm 1 mps 616 mmHg 93%
02:00 +15°C° 0.2 mm 1 mps 616 mmHg 93%
03:00 +15°C° 0.2 mm 1 mps 616 mmHg 92%
04:00 +15°C° 0.2 mm 1 mps 615 mmHg 92%
05:00 +16°C° 0.1 mm 1 mps 616 mmHg 91%
06:00 +16°C° 0.1 mm 1 mps 616 mmHg 89%
07:00 +16°C° 0 mm 0 mps 617 mmHg 87%
08:00 +20°C° 0.2 mm 1 mps 617 mmHg 83%
09:00 +21°C° 0.2 mm 1 mps 618 mmHg 79%
10:00 +23°C° 0.2 mm 1 mps 619 mmHg 74%
11:00 +23°C° 0.7 mm 1 mps 618 mmHg 75%
12:00 +23°C° 0.7 mm 1 mps 617 mmHg 77%
13:00 +21°C° 0.7 mm 0 mps 617 mmHg 78%
14:00 +20°C° 1.2 mm 0 mps 616 mmHg 81%
15:00 +20°C° 1.2 mm 0 mps 616 mmHg 84%
16:00 +19°C° 1.2 mm 0 mps 615 mmHg 88%
17:00 +18°C° 1.8 mm 0 mps 615 mmHg 91%
18:00 +17°C° 1.8 mm 0 mps 615 mmHg 93%
19:00 +16°C° 1.8 mm 0 mps 615 mmHg 96%
20:00 +16°C° 1.3 mm 0 mps 616 mmHg 97%
21:00 +16°C° 1.3 mm 0 mps 617 mmHg 97%
22:00 +16°C° 1.3 mm 0 mps 617 mmHg 97%
23:00 +16°C° 0.4 mm 0 mps 617 mmHg 97%

Tomorrow, 19 April, Monday

Time Temperature Precipitation Wind Pressure Humidity
00:00 +16°C° 0.4 mm 0 mps 617 mmHg 97%
01:00 +16°C° 0.4 mm 0 mps 616 mmHg 97%
02:00 +16°C° 0.2 mm 0 mps 616 mmHg 97%
03:00 +16°C° 0.2 mm 0 mps 616 mmHg 97%
04:00 +15°C° 0.2 mm 0 mps 616 mmHg 97%
05:00 +16°C° 0.4 mm 0 mps 616 mmHg 97%
06:00 +16°C° 0.4 mm 0 mps 616 mmHg 97%
07:00 +16°C° 0.4 mm 0 mps 617 mmHg 97%
08:00 +16°C° 1.2 mm 0 mps 617 mmHg 97%
09:00 +16°C° 1.2 mm 0 mps 618 mmHg 96%
10:00 +17°C° 1.2 mm 0 mps 618 mmHg 96%
11:00 +17°C° 1.1 mm 0 mps 618 mmHg 96%
12:00 +17°C° 1.1 mm 0 mps 617 mmHg 95%
13:00 +17°C° 1.1 mm 0 mps 617 mmHg 95%
14:00 +17°C° 0.5 mm 0 mps 616 mmHg 94%
15:00 +17°C° 0.5 mm 0 mps 616 mmHg 94%
16:00 +17°C° 0.5 mm 0 mps 616 mmHg 93%
17:00 +17°C° 0.4 mm 0 mps 616 mmHg 94%
18:00 +16°C° 0.4 mm 0 mps 616 mmHg 94%
19:00 +18°C° 0.4 mm 1 mps 617 mmHg 95%
20:00 +18°C° 0.4 mm 1 mps 617 mmHg 95%
21:00 +18°C° 0.4 mm 1 mps 617 mmHg 94%
22:00 +18°C° 0.4 mm 1 mps 618 mmHg 94%
23:00 +18°C° 0.2 mm 1 mps 617 mmHg 94%

Day after tomorrow, 20 April, Tuesday

Time Temperature Precipitation Wind Pressure Humidity
00:00 +16°C° 0.2 mm 1 mps 617 mmHg 94%
01:00 +16°C° 0.2 mm 1 mps 616 mmHg 94%
02:00 +15°C° 0.1 mm 0 mps 616 mmHg 94%
03:00 +15°C° 0.1 mm 0 mps 616 mmHg 93%
04:00 +15°C° 0.1 mm 0 mps 616 mmHg 93%
05:00 +15°C° 0.1 mm 0 mps 616 mmHg 92%
06:00 +16°C° 0.1 mm 0 mps 617 mmHg 92%
07:00 +18°C° 0.1 mm 1 mps 617 mmHg 91%
08:00 +19°C° 0.1 mm 1 mps 618 mmHg 85%
09:00 +21°C° 0.1 mm 1 mps 618 mmHg 80%
10:00 +22°C° 0.1 mm 1 mps 619 mmHg 74%
11:00 +23°C° 0.6 mm 1 mps 618 mmHg 75%
12:00 +23°C° 0.6 mm 1 mps 618 mmHg 76%
13:00 +23°C° 0.6 mm 1 mps 617 mmHg 77%
14:00 +22°C° 2.1 mm 1 mps 617 mmHg 81%
15:00 +21°C° 2.1 mm 1 mps 616 mmHg 85%
16:00 +20°C° 2.1 mm 1 mps 615 mmHg 89%
17:00 +19°C° 3.1 mm 1 mps 615 mmHg 91%
18:00 +18°C° 3.1 mm 1 mps 616 mmHg 93%
19:00 +18°C° 3.1 mm 1 mps 616 mmHg 96%
20:00 +16°C° 1.2 mm 1 mps 616 mmHg 95%
21:00 +16°C° 1.2 mm 1 mps 617 mmHg 94%
22:00 +16°C° 1.2 mm 1 mps 617 mmHg 94%
23:00 +16°C° 0.2 mm 1 mps 617 mmHg 93%

21 April, Wednesday

Time Temperature Precipitation Wind Pressure Humidity
00:00 +16°C° 0.2 mm 1 mps 617 mmHg 93%
01:00 +16°C° 0.2 mm 1 mps 616 mmHg 92%
02:00 +16°C° 0.1 mm 1 mps 616 mmHg 92%
03:00 +15°C° 0.1 mm 0 mps 616 mmHg 92%
04:00 +15°C° 0.1 mm 0 mps 616 mmHg 92%
05:00 +15°C° 0.1 mm 0 mps 616 mmHg 92%
06:00 +16°C° 0.1 mm 0 mps 617 mmHg 91%
07:00 +16°C° 0.1 mm 0 mps 617 mmHg 90%
08:00 +17°C° 0.1 mm 0 mps 618 mmHg 87%
09:00 +20°C° 0.1 mm 1 mps 618 mmHg 83%
10:00 +21°C° 0.1 mm 1 mps 619 mmHg 79%
11:00 +21°C° 0.7 mm 1 mps 618 mmHg 82%
12:00 +21°C° 0.7 mm 1 mps 618 mmHg 84%
13:00 +21°C° 0.7 mm 1 mps 617 mmHg 86%
14:00 +21°C° 1.7 mm 1 mps 617 mmHg 88%
15:00 +18°C° 1.7 mm 0 mps 616 mmHg 91%
16:00 +17°C° 1.7 mm 0 mps 616 mmHg 93%
17:00 +17°C° 2 mm 0 mps 616 mmHg 94%
18:00 +18°C° 2 mm 1 mps 616 mmHg 94%
19:00 +18°C° 2 mm 1 mps 616 mmHg 95%
20:00 +18°C° 0.7 mm 1 mps 616 mmHg 95%
21:00 +16°C° 0.7 mm 1 mps 617 mmHg 94%
22:00 +16°C° 0.7 mm 1 mps 617 mmHg 94%
23:00 +16°C° 0.3 mm 1 mps 617 mmHg 94%

22 April, Thursday

Time Temperature Precipitation Wind Pressure Humidity
00:00 +16°C° 0.3 mm 1 mps 616 mmHg 94%
01:00 +16°C° 0.3 mm 1 mps 616 mmHg 94%
02:00 +16°C° 0.3 mm 1 mps 615 mmHg 93%
03:00 +16°C° 0.3 mm 1 mps 615 mmHg 93%
04:00 +16°C° 0.3 mm 1 mps 615 mmHg 92%
05:00 +16°C° 0.1 mm 1 mps 616 mmHg 91%
06:00 +16°C° 0.1 mm 1 mps 616 mmHg 91%
07:00 +16°C° 0.1 mm 0 mps 616 mmHg 90%
08:00 +20°C° 0.1 mm 1 mps 617 mmHg 82%
09:00 +21°C° 0.1 mm 1 mps 618 mmHg 75%
10:00 +23°C° 0.1 mm 1 mps 618 mmHg 68%
11:00 +24°C° 0.3 mm 1 mps 618 mmHg 67%
12:00 +24°C° 0.3 mm 1 mps 617 mmHg 67%
13:00 +25°C° 0.3 mm 1 mps 617 mmHg 67%
14:00 +24°C° 0.7 mm 1 mps 616 mmHg 70%
15:00 +24°C° 0.7 mm 1 mps 616 mmHg 73%
16:00 +23°C° 0.7 mm 1 mps 615 mmHg 76%
17:00 +22°C° 0.7 mm 1 mps 615 mmHg 81%
18:00 +20°C° 0.7 mm 1 mps 615 mmHg 86%
19:00 +19°C° 0.7 mm 1 mps 615 mmHg 91%
20:00 +18°C° 0.3 mm 1 mps 616 mmHg 91%
21:00 +18°C° 0.3 mm 1 mps 616 mmHg 91%
22:00 +18°C° 0.3 mm 1 mps 617 mmHg 92%
23:00 +16°C° 0 mm 1 mps 616 mmHg 91%

23 April, Friday

Time Temperature Precipitation Wind Pressure Humidity
00:00 +16°C° 0 mm 1 mps 616 mmHg 91%
01:00 +16°C° 0 mm 1 mps 616 mmHg 90%
02:00 +15°C° 0.1 mm 1 mps 616 mmHg 91%
03:00 +15°C° 0.1 mm 1 mps 615 mmHg 92%
04:00 +15°C° 0.1 mm 1 mps 615 mmHg 92%
05:00 +16°C° 0 mm 1 mps 616 mmHg 91%
06:00 +16°C° 0 mm 1 mps 616 mmHg 90%
07:00 +18°C° 0 mm 1 mps 617 mmHg 89%
08:00 +20°C° 0 mm 1 mps 617 mmHg 82%
09:00 +22°C° 0 mm 1 mps 618 mmHg 75%
10:00 +24°C° 0 mm 1 mps 618 mmHg 69%
11:00 +24°C° 0.5 mm 1 mps 618 mmHg 68%
12:00 +25°C° 0.5 mm 1 mps 617 mmHg 68%
13:00 +25°C° 0.5 mm 1 mps 617 mmHg 68%
14:00 +24°C° 1.5 mm 1 mps 616 mmHg 73%
15:00 +24°C° 1.5 mm 1 mps 616 mmHg 77%
16:00 +21°C° 1.5 mm 0 mps 615 mmHg 82%
17:00 +22°C° 2.8 mm 1 mps 615 mmHg 87%
18:00 +20°C° 2.8 mm 1 mps 615 mmHg 91%
19:00 +19°C° 2.8 mm 1 mps 615 mmHg 96%
20:00 +19°C° 1.6 mm 1 mps 616 mmHg 96%
21:00 +19°C° 1.6 mm 1 mps 616 mmHg 95%
22:00 +18°C° 1.6 mm 1 mps 616 mmHg 95%
23:00 +18°C° 0.1 mm 1 mps 616 mmHg 95%
Show more

We Need Your Consent

Meteoprog and our Service Providers may store and access personal data such as cookies, device identifiers or other similar technologies on your device and process such data to personalise content and ads, as well as provide social media features and to analyse the traffic.

  • Store and/or access information on your device

    Cookies, device identifiers or other information can be stored or accessed on your device for the purposes indicated above.

  • Personalised ads and content, ad and content measurement, audience insights, and products development

    Ads and content can be personalised based on a profile. More data can be added to better personalise ads and content. Ad and content performance can be measured. Insights about the audience who saw the ads and content can be derived. Such data can be used to develop or improve user’s experience, systems and software.

By clicking ‘I Agree’ you will allow the use of indicated cookies, device identifiers, web beacons or other similar technologies. Your settings can be changed in the browser on your device.

For certain purposes, legitimate interests may be relied on, rather than consent. You can read more about this in our Privacy and Cookie Policy.